Previsão horária em Plomieniec

Hoje, 5 Março, Sexta-feira

Tempo Temperatura Precipitação Vento Pressão Humidade
00:00 -1°C° 0.1 mm 3 m/s 745 mmHg 91%
01:00 -3°C° 0 mm 4 m/s 745 mmHg 87%
02:00 -3°C° 0 mm 4 m/s 745 mmHg 86%
03:00 -2°C° 0 mm 3 m/s 745 mmHg 85%
04:00 -2°C° 0 mm 3 m/s 746 mmHg 84%
05:00 -2°C° 0 mm 3 m/s 746 mmHg 81%
06:00 -2°C° 0 mm 3 m/s 746 mmHg 79%
07:00 -4°C° 0 mm 3 m/s 747 mmHg 77%
08:00 -2°C° 0 mm 3 m/s 747 mmHg 67%
09:00 -2°C° 0 mm 4 m/s 748 mmHg 56%
10:00 -1°C° 0 mm 4 m/s 748 mmHg 46%
11:00 0°C° 0 mm 4 m/s 748 mmHg 43%
12:00 0°C° 0 mm 4 m/s 748 mmHg 41%
13:00 +1°C° 0 mm 4 m/s 749 mmHg 38%
14:00 +2°C° 0 mm 3 m/s 749 mmHg 40%
15:00 +1°C° 0 mm 3 m/s 749 mmHg 41%
16:00 +1°C° 0 mm 3 m/s 750 mmHg 43%
17:00 0°C° 0 mm 3 m/s 750 mmHg 50%
18:00 +1°C° 0 mm 2 m/s 751 mmHg 58%
19:00 -1°C° 0 mm 2 m/s 751 mmHg 66%
20:00 -2°C° 0 mm 2 m/s 751 mmHg 68%
21:00 -2°C° 0 mm 2 m/s 752 mmHg 69%
22:00 -2°C° 0 mm 2 m/s 752 mmHg 70%
23:00 -4°C° 0 mm 3 m/s 753 mmHg 69%

Amanhã, 6 Março, Sábado

Tempo Temperatura Precipitação Vento Pressão Humidade
00:00 -4°C° 0 mm 3 m/s 753 mmHg 68%
01:00 -4°C° 0 mm 3 m/s 753 mmHg 66%
02:00 -4°C° 0 mm 3 m/s 753 mmHg 70%
03:00 -4°C° 0 mm 4 m/s 753 mmHg 74%
04:00 -4°C° 0 mm 4 m/s 753 mmHg 77%
05:00 -4°C° 0 mm 4 m/s 754 mmHg 76%
06:00 -4°C° 0 mm 4 m/s 754 mmHg 74%
07:00 -4°C° 0 mm 4 m/s 755 mmHg 72%
08:00 -3°C° 0 mm 4 m/s 755 mmHg 64%
09:00 -2°C° 0 mm 4 m/s 756 mmHg 56%
10:00 -1°C° 0 mm 4 m/s 756 mmHg 48%
11:00 -1°C° 0 mm 4 m/s 756 mmHg 47%
12:00 0°C° 0 mm 4 m/s 755 mmHg 46%
13:00 0°C° 0 mm 5 m/s 755 mmHg 45%
14:00 0°C° 0 mm 5 m/s 755 mmHg 46%
15:00 0°C° 0 mm 4 m/s 755 mmHg 47%
16:00 0°C° 0 mm 4 m/s 754 mmHg 48%
17:00 -1°C° 0 mm 4 m/s 754 mmHg 52%
18:00 -2°C° 0 mm 4 m/s 754 mmHg 56%
19:00 -2°C° 0 mm 4 m/s 753 mmHg 60%
20:00 -2°C° 0 mm 5 m/s 753 mmHg 59%
21:00 -2°C° 0 mm 5 m/s 753 mmHg 59%
22:00 -3°C° 0 mm 6 m/s 752 mmHg 59%
23:00 -3°C° 0 mm 6 m/s 752 mmHg 63%

Depois de amanhã, 7 Março, Domingo

Tempo Temperatura Precipitação Vento Pressão Humidade
00:00 -3°C° 0 mm 6 m/s 751 mmHg 68%
01:00 -3°C° 0 mm 7 m/s 751 mmHg 72%
02:00 -3°C° 0.1 mm 7 m/s 750 mmHg 77%
03:00 -4°C° 0.1 mm 8 m/s 750 mmHg 82%
04:00 -4°C° 0.1 mm 8 m/s 749 mmHg 88%
05:00 -4°C° 0.2 mm 8 m/s 749 mmHg 86%
06:00 -4°C° 0.2 mm 8 m/s 749 mmHg 85%
07:00 -4°C° 0.2 mm 9 m/s 748 mmHg 83%
08:00 -3°C° 0 mm 9 m/s 748 mmHg 77%
09:00 -3°C° 0 mm 9 m/s 748 mmHg 71%
10:00 -1°C° 0 mm 9 m/s 748 mmHg 64%
11:00 -1°C° 0 mm 9 m/s 748 mmHg 65%
12:00 -1°C° 0 mm 9 m/s 748 mmHg 66%
13:00 -1°C° 0 mm 9 m/s 748 mmHg 66%
14:00 -1°C° 0 mm 8 m/s 747 mmHg 68%
15:00 -1°C° 0 mm 8 m/s 746 mmHg 70%
16:00 -1°C° 0 mm 8 m/s 746 mmHg 72%
17:00 -2°C° 0 mm 7 m/s 746 mmHg 75%
18:00 -3°C° 0 mm 7 m/s 746 mmHg 79%
19:00 -3°C° 0 mm 6 m/s 745 mmHg 82%
20:00 -3°C° 0 mm 6 m/s 745 mmHg 82%
21:00 -4°C° 0 mm 6 m/s 745 mmHg 82%
22:00 -4°C° 0 mm 6 m/s 745 mmHg 82%
23:00 -4°C° 0.2 mm 6 m/s 745 mmHg 86%

8 Março, Segunda-feira

Tempo Temperatura Precipitação Vento Pressão Humidade
00:00 -4°C° 0.2 mm 5 m/s 745 mmHg 89%
01:00 -4°C° 0.2 mm 5 m/s 745 mmHg 93%
02:00 -4°C° 0.4 mm 4 m/s 745 mmHg 92%
03:00 -4°C° 0.4 mm 3 m/s 745 mmHg 90%
04:00 -3°C° 0.4 mm 2 m/s 744 mmHg 89%
05:00 -3°C° 0.1 mm 2 m/s 745 mmHg 85%
06:00 -3°C° 0.1 mm 2 m/s 745 mmHg 80%
07:00 -3°C° 0.1 mm 2 m/s 745 mmHg 76%
08:00 -2°C° 0 mm 2 m/s 745 mmHg 70%
09:00 -1°C° 0 mm 3 m/s 746 mmHg 64%
10:00 -1°C° 0 mm 4 m/s 746 mmHg 57%
11:00 -1°C° 0.1 mm 5 m/s 746 mmHg 58%
12:00 -1°C° 0.1 mm 5 m/s 746 mmHg 58%
13:00 -1°C° 0.1 mm 6 m/s 746 mmHg 59%
14:00 -2°C° 0.1 mm 6 m/s 747 mmHg 59%
15:00 -2°C° 0.1 mm 6 m/s 747 mmHg 60%
16:00 -2°C° 0.1 mm 6 m/s 747 mmHg 60%
17:00 -2°C° 0 mm 5 m/s 747 mmHg 66%
18:00 -4°C° 0 mm 5 m/s 748 mmHg 71%
19:00 -4°C° 0 mm 4 m/s 749 mmHg 77%
20:00 -5°C° 0 mm 4 m/s 749 mmHg 79%
21:00 -5°C° 0 mm 4 m/s 749 mmHg 80%
22:00 -6°C° 0 mm 3 m/s 750 mmHg 82%
23:00 -6°C° 0 mm 3 m/s 750 mmHg 81%

9 Março, Terça-feira

Tempo Temperatura Precipitação Vento Pressão Humidade
00:00 -6°C° 0 mm 3 m/s 750 mmHg 81%
01:00 -6°C° 0 mm 3 m/s 751 mmHg 80%
02:00 -5°C° 0 mm 2 m/s 751 mmHg 78%
03:00 -6°C° 0 mm 2 m/s 751 mmHg 76%
04:00 -6°C° 0 mm 2 m/s 751 mmHg 75%
05:00 -6°C° 0 mm 2 m/s 751 mmHg 72%
06:00 -6°C° 0 mm 2 m/s 752 mmHg 69%
07:00 -5°C° 0 mm 2 m/s 752 mmHg 66%
08:00 -5°C° 0 mm 2 m/s 752 mmHg 56%
09:00 -4°C° 0 mm 2 m/s 753 mmHg 47%
10:00 -3°C° 0 mm 2 m/s 753 mmHg 38%
11:00 -1°C° 0 mm 1 m/s 753 mmHg 35%
12:00 0°C° 0 mm 1 m/s 753 mmHg 31%
13:00 +1°C° 0 mm 1 m/s 753 mmHg 28%
14:00 0°C° 0 mm 1 m/s 753 mmHg 28%
15:00 0°C° 0 mm 1 m/s 752 mmHg 28%
16:00 -1°C° 0 mm 0 m/s 752 mmHg 28%
17:00 -1°C° 0 mm 1 m/s 752 mmHg 32%
18:00 -1°C° 0 mm 1 m/s 753 mmHg 35%
19:00 -2°C° 0 mm 1 m/s 753 mmHg 38%
20:00 -2°C° 0 mm 1 m/s 753 mmHg 39%
21:00 -4°C° 0 mm 2 m/s 753 mmHg 40%
22:00 -4°C° 0 mm 2 m/s 753 mmHg 41%
23:00 -4°C° 0 mm 2 m/s 753 mmHg 43%

10 Março, Quarta-feira

Tempo Temperatura Precipitação Vento Pressão Humidade
00:00 -4°C° 0 mm 2 m/s 753 mmHg 45%
01:00 -5°C° 0 mm 2 m/s 753 mmHg 46%
02:00 -5°C° 0 mm 2 m/s 752 mmHg 48%
03:00 -5°C° 0 mm 2 m/s 752 mmHg 49%
04:00 -5°C° 0 mm 2 m/s 752 mmHg 50%
05:00 -5°C° 0 mm 2 m/s 752 mmHg 51%
06:00 -6°C° 0 mm 3 m/s 752 mmHg 51%
07:00 -6°C° 0 mm 3 m/s 752 mmHg 51%
08:00 -4°C° 0 mm 3 m/s 752 mmHg 47%
09:00 -2°C° 0 mm 3 m/s 752 mmHg 43%
10:00 -2°C° 0 mm 4 m/s 752 mmHg 39%
11:00 -2°C° 0 mm 4 m/s 751 mmHg 37%
12:00 -1°C° 0 mm 4 m/s 751 mmHg 36%
13:00 0°C° 0 mm 4 m/s 751 mmHg 34%
14:00 0°C° 0 mm 4 m/s 750 mmHg 35%
15:00 +1°C° 0 mm 3 m/s 750 mmHg 36%
16:00 +1°C° 0 mm 3 m/s 749 mmHg 37%
17:00 0°C° 0 mm 3 m/s 749 mmHg 41%
18:00 -1°C° 0 mm 3 m/s 749 mmHg 45%
19:00 -3°C° 0 mm 4 m/s 749 mmHg 48%
20:00 -3°C° 0 mm 4 m/s 748 mmHg 48%
21:00 -3°C° 0 mm 4 m/s 748 mmHg 48%
22:00 -3°C° 0 mm 4 m/s 748 mmHg 48%
23:00 -3°C° 0 mm 4 m/s 747 mmHg 49%
Mostrar mais

Necessitamos do seu Consentimento

A Meteoprog e os seus Fornecedores de Serviços podem armazenar e aceder a dados pessoais como cookies, identificadores do dispositivo ou outras tecnologias semelhantes existentes no seu dispositivo e processar estes dados para personalizar conteúdos e anúncios, assim como funcionalidades nas redes sociais e análise de tráfego.

  • Armazenar e/ou aceder a informações no seu dispositivo

    Os cookies, identificadores do dispositivo ou outras informações podem ser armazenados ou acedidos no seu dispositivo, para os fins acima indicados.

  • Anúncios e conteúdos personalizados, medição de anúncios e conteúdos, dados sobre o público-alvo e desenvolvimento de produtos

    Os anúncios e os conteúdos podem ser personalizados com base num perfil. Podem ser adicionados dados adicionais para uma maior personalização dos anúncios e dos conteúdos. A eficácia dos anúncios e dos conteúdos pode ser medida. Podem ser obtidas informações sobre o público que visualizou os anúncios e os conteúdos. Estes dados podem ser usados para desenvolver ou melhorar sistemas, softwares ou a experiência do utilizador.

Ao clicar em "Eu concordo”, permitirá o uso de cookies, identificadores do dispositivo e web beacons mencionados ou outras tecnologias semelhantes. As configurações do navegador do seu dispositivo podem ser alteradas.

Para certos fins, podem ser invocados interesses legítimos ao invés de consentimento. Pode ler mais informação sobre este assunto na nossa Política de Privacidade e Cookies.